Regional Weather Roundup
Issued by NWS

Home | Current Version | Previous Version | Text Only | Print | Product List | Glossary On
Versions: 1 2 3 4 5 6 7 8 9 10 11 12 13 14 15 16 17 18 19 20 21 22 23 24 25 26 27 28 29 30 31 32 33 34 35 36 37 38 39 40 41 42 43 44 45 46 47 48 49 50
000
ASUS43 KBIS 012220
RWRND

NORTH DAKOTA REGIONAL WEATHER ROUNDUP
NATIONAL WEATHER SERVICE BISMARCK ND
400 PM CST SUN FEB 01 2015

NOTE: "FAIR" INDICATES FEW OR NO CLOUDS BELOW 12,000 FEET WITH NO
SIGNIFICANT WEATHER AND/OR OBSTRUCTIONS TO VISIBILITY.


NDZ001>003-009>011-017-012300-
NORTHWEST NORTH DAKOTA

CITY           SKY/WX    TMP DP  RH WIND       PRES   REMARKS
WILLISTON      SUNNY      7  -7  52 SW9       30.28F WCI  -7
MINOT          SUNNY      5 -10  50 SW12      30.32F WCI -11
MINOT AFB      SUNNY      6  -7  54 SW8       30.31F WCI  -7
$$

NDZ018>021-031>035-040>046-012300-
SOUTHWEST NORTH DAKOTA

CITY           SKY/WX    TMP DP  RH WIND       PRES   REMARKS
BISMARCK       SUNNY      4 -12  48 W8        30.39F WCI  -9
DICKINSON      SUNNY      6  -5  60 SW6       30.23F WCI  -4
GARRISON         N/A      3 -11  52 W9        30.32F WCI -12
HETTINGER ARPT SUNNY      7   0  73 W6        30.27F WCI  -3
$$

NDZ004>008-012>016-024-026-027-054-012300-
NORTHEAST NORTH DAKOTA

CITY           SKY/WX    TMP DP  RH WIND       PRES   REMARKS
GRAND FORKS    SUNNY      2 -12  52 N6        30.45F WCI  -9
GRND FRKS AFB  SUNNY      3 -17  39 VRB3      30.44F
DEVILS LAKE    SUNNY      1 -15  46 W9        30.36F WCI -14
$$

NDZ022-023-025-028>030-036>039-047>053-012300-
SOUTHEAST NORTH DAKOTA

CITY           SKY/WX    TMP DP  RH WIND       PRES   REMARKS
FARGO          SUNNY      5 -13  43 N12       30.43F WCI -11
JAMESTOWN      SUNNY      4 -12  48 N5        30.36F WCI  -5
$$



USA.gov is the U.S. government's official web portal to all federal, state and local government web resources and services.